Regional Weather Roundup
Issued by NWS State College, PA

Home | Current Version | Previous Version | Text Only | Print | Product List | Glossary On
Versions: 1 2 3 4 5 6 7 8 9 10 11 12 13 14 15 16 17 18 19 20 21 22 23 24 25 26 27 28 29 30 31 32 33 34 35 36 37 38 39 40 41 42 43 44 45 46 47 48 49 50
575
ASUS41 KCTP 280303
RWRCTP

REGIONAL WEATHER ROUNDUP
NATIONAL WEATHER SERVICE STATE COLLEGE PA
1100 PM EDT THU APR 27 2017

Note: "fair" indicates few or no clouds below 12,000 feet with no
significant weather and/or obstructions to visibility.

* = STATION THAT DOES NOT REPORT PRECIPITATION /E.G. RAIN...SNOW...ETC/
    THUNDER OR FOG.

PAZ002>004-007>009-013>016-020>023-029>032-280400-
WESTERN PENNSYLVANIA

CITY           SKY/WX    TMP DP  RH WIND       PRES   REMARKS
ERIE           CLEAR     54  44  69 SW13G20   29.81R
MEADVILLE      PTCLDY    53  49  86 NW3       29.81R
FRANKLIN*      MOCLDY    57  54  88 CALM      29.81R
NEW CASTLE     FAIR      58  56  93 W7        29.81R
BEAVER COUNTY  NOT AVBL
BUTLER*        CLEAR     59  55  88 CALM      29.82R
PITTSBURGH INT CLEAR     56  56 100 S5        29.81R
PITTSBURGH     PTCLDY    61  56  83 S6        29.81R
INDIANA*       MOCLDY    64  61  88 NW6       29.85S
LATROBE        MOCLDY    64  63  94 S3        29.83R
WASHINGTON CO* PTCLDY    57  55  94 CALM      29.85R
$$

PAZ004>006-010>012-017>019-024>028-033>037-041-042-045-046-049>053-280400-
CENTRAL PENNSYLVANIA

CITY           SKY/WX    TMP DP  RH WIND       PRES   REMARKS
BRADFORD       CLOUDY    59  59 100 CALM      29.81R
DUBOIS         CLOUDY    61  56  83 W7        29.80S
CLEARFIELD     PTCLDY    63  60  90 SW5       29.81R
JOHNSTOWN      CLEAR     61  58  90 SW10      29.83R
ALTOONA        PTCLDY    61  61 100 CALM      29.82R FOG
STATE COLLEGE  PTCLDY    63  61  96 S7        29.80F
WILLIAMSPORT   RAIN      73  63  70 SE10      29.74F
SELINSGROVE    RAIN      69  65  86 S5        29.80R FOG
FT INDIANTOWN  CLOUDY    69  69 100 CALM      29.81R
CAPITAL CITY   LGT RAIN  73  60  63 N3        29.79S
HARRISBURG     MOCLDY    70  60  70 SE5       29.78S
YORK           MOCLDY    71  60  68 S5        29.80S
$$

PAZ038>040-043-044-047-048-054-055-060>062-067>071-280400-
EASTERN PENNSYLVANIA

CITY           SKY/WX    TMP DP  RH WIND       PRES   REMARKS
SCRANTON       CLOUDY    69  62  78 VRB3      29.81R
MOUNT POCONO   CLOUDY    60  60 100 SE8       29.87S
ALLENTOWN      CLOUDY    68  61  78 SE6       29.84R
QUAKERTOWN*    CLOUDY    64  63  94 E3        29.85F
READING        CLOUDY    73  62  68 SE10      29.81S
LANCASTER      CLOUDY    66  63  90 E5        29.81S
COATESVILLE    CLOUDY    68  59  73 SE5       29.86R
POTTSTOWN      CLOUDY    66  61  84 E3        29.85R
BLUE BELL      CLOUDY    63  59  88 NE5       29.86S
DOYLESTOWN     CLOUDY    62  61  96 CALM      29.85S
WILLOW GROVE   NOT AVBL
NORTH PHILA    PTCLDY    64  59  83 E3        29.86S
PHILADELPHIA   CLOUDY    68  61  78 CALM      29.83F
$$




USA.gov is the U.S. government's official web portal to all federal, state and local government web resources and services.